Dati Storici

Data ora Umidita' aria (%) Temperatura aria (°C) Rad globale (W/m²) Gonioanemometro (°) Tacoanemometro (m/s) Pioggia (mm)
08-06-2020 09:30 97.6 % 19.05 -79.424 2.679 0 0
08-06-2020 09:20 97.6 % 19.14 -78.657 2.677 0 0
08-06-2020 09:10 97.6 % 19.327 -78.624 2.325 0 0
08-06-2020 09:00 97.6 % 19.076 -80.286 1.787 0 0
08-06-2020 08:50 97.7 % 18.86 -80.686 0.777 0 0
08-06-2020 08:40 97.6 % 18.792 -80.742 2.243 0 0
08-06-2020 08:30 97.6 % 18.735 -79.005 1.64 0 0
08-06-2020 08:20 97.6 % 18.784 -51.415 0.575 0 0
08-06-2020 08:10 97.7 % 19.357 -73.76 1.063 0 0
08-06-2020 08:00 97.7 % 18.236 -77.948 1.215 0 0
08-06-2020 07:50 97.7 % 18.697 -75.665 0.351 0 0
08-06-2020 07:40 97.7 % 18.175 -81.638 2.12 0 0
08-06-2020 07:30 97.7 % 18.042 -80.073 1.936 0 0
08-06-2020 07:20 97.8 % 17.424 -81.2 3.809 0 0
08-06-2020 07:10 97.8 % 17.081 -80.791 1.984 0 0
08-06-2020 07:00 97.8 % 16.956 -81.91 1.277 0 0
08-06-2020 06:50 97.8 % 16.753 -80.115 3.28 0 0
08-06-2020 06:40 97.8 % 16.873 -76.977 2.955 0 0
08-06-2020 06:30 97.8 % 17.1 -81.048 4.027 0 0
08-06-2020 06:20 97.8 % 16.649 -82.472 1.992 0 0

I dati sono presentati in modo automatico a scopo informativo. In seguito a verifica i dati possono subire modifiche o essere invalidati e non riportati negli archivi definitivi.